User: anonymous   Login
Location: Unspecified
(0.0000°N, 0.0000°E)
Time: 11:42:51
(UTC+00:00)
Language:

Meteor 2-16 - Orbit

View from above orbital plane
View from above orbital plane
View from above satellite
View from above satellite

Ground track
Ground track

The orbit data is extracted from the following two-line orbital elements,

1 18312U 87068A   18017.55350569  .00000027  00000-0  10581-4 0  9997
2 18312  82.5543 214.4643 0013152  39.9401 320.2725 13.84724934537119
Epoch (UTC): 17 January 2018 13:17:02
Eccentricity: 0.0013152
inclination: 82.5543°
perigee height: 937 km
apogee height: 957 km
right ascension of ascending node: 214.4643°
argument of perigee: 39.9401°
revolutions per day: 13.84724934
mean anomaly at epoch: 320.2725°
orbit number at epoch: 53711

The dashed part of the orbit path shows where the satellite is in the earth's shadow,  

DLR